Location: ??????
(41.3794°N, 22.5014°E)
Time: 07:29:09
(UTC+00:00)

Cosmos 1867 - Pass Details

Date: 30 November 2020
Orbit: 776 x 800 km, 65.0° (Epoch: 17 January)

Event Time Altitude Azimuth Distance (km) Brightness Sun altitude
Rises 15:19:35 0° 219° (SW) 3,263 8.2 -3.8°
Reaches altitude 10° 15:22:00 10° 222° (SW) 2,342 7.4 -4.3°
Maximum altitude 15:27:21 66° 305° (NW) 864 4.0 -5.2°
Drops below altitude 10° 15:32:47 10° 28° (NNE) 2,371 5.6 -6.1°
Enters shadow 15:34:55 - 31° (NNE) 3,180 6.2 -6.5°
